Weather History for Lubbock, TX

Change the Weather History Date:

Tuesday, July 30, 2013

  Actual Average Record
Temperature  
Mean Temperature 82 °F 80 °F  
Max Temperature 94 °F 93 °F 104 °F (1946)
Min Temperature 70 °F 68 °F 60 °F (2000)
Degree Days  
Heating Degree Days 0 0  
Month to date heating degree days 0 0  
Since 1 June heating degree days 0 2  
Since 1 July heating degree days 0 0  
Cooling Degree Days 17 15  
Month to date cooling degree days 431 450  
Year to date cooling degree days 1220 1070  
Since 1 June cooling degree days 905 824  
Growing Degree Days 30 (Base 50)    
Moisture  
Dew Point 65 °F    
Average Humidity 62    
Maximum Humidity 84    
Minimum Humidity 39    
Precipitation  
Precipitation 0.00 in 0.05 in 1.12 in (1925)
Month to date precipitation 3.37 1.85  
Year to date precipitation 8.46 11.10  
Snow  
Snow 0.00 in 0.00 in - ()
Month to date snowfall 0.0 0.0  
Since 1 June snowfall 0.0 0.0  
Since 1 July snowfall 0.0 0.0  
Snow Depth 0.00 in    
Sea Level Pressure  
Sea Level Pressure 29.92 in    
Wind  
Wind Speed 10 mph (ESE)    
Max Wind Speed 20 mph    
Max Gust Speed 25 mph    
Visibility 10 miles    
Events      
T = Trace of Precipitation, MM = Missing Value Source: NWS Daily Summary

Daily Weather History Graph

Daily Weather History Graph

Search for Another Location

Airport:

Trip Planner

Search our weather history database for the weather conditions in past years. The results will help you decide how hot, cold, wet, or windy it might be!

Date:

Astronomy

Jul. 30, 2013 Rise Set
Actual Time 6:58 AM CDT 8:48 PM CDT
Civil Twilight 6:30 AM CDT 9:16 PM CDT
Nautical Twilight 5:57 AM CDT 9:49 PM CDT
Astronomical Twilight 5:22 AM CDT 10:24 PM CDT
Moon 1:14 AM CDT 3:11 PM CDT
Length of Visible Light 14h 45m
Length of Day
13h 50m
Last Quarter, 41% of the Moon is Illuminated
Jul 30
Last Quarter
Aug 6
New
Aug 14
First Quarter
Aug 20
Full
Aug 28
Last Quarter

Hourly Weather History & Observations

Time (CDT) Temp. Heat Index Dew Point Humidity Pressure Visibility Wind Dir Wind Speed Gust Speed Precip Events Conditions
12:53 AM 80.1 °F 81.7 °F 64.0 °F 58% 29.85 in 10.0 mi SSW 18.4 mph 25.3 mph N/A   Partly Cloudy
1:53 AM 79.0 °F - 62.1 °F 56% 29.85 in 10.0 mi SSW 13.8 mph - N/A   Scattered Clouds
2:53 AM 77.0 °F - 63.0 °F 62% 29.84 in 10.0 mi South 12.7 mph - N/A   Scattered Clouds
3:53 AM 75.9 °F - 63.0 °F 64% 29.86 in 10.0 mi SSW 10.4 mph - N/A   Mostly Cloudy
4:53 AM 75.9 °F - 63.0 °F 64% 29.88 in 10.0 mi SW 10.4 mph - N/A   Mostly Cloudy
5:53 AM 72.0 °F - 63.0 °F 73% 29.90 in 10.0 mi WSW 8.1 mph - N/A   Mostly Cloudy
6:53 AM 70.0 °F - 64.0 °F 81% 29.92 in 10.0 mi SSE 4.6 mph - N/A   Mostly Cloudy
7:53 AM 73.0 °F - 64.0 °F 73% 29.91 in 10.0 mi SE 3.5 mph - N/A   Mostly Cloudy
8:53 AM 77.0 °F - 64.9 °F 66% 29.94 in 10.0 mi South 11.5 mph - N/A   Mostly Cloudy
9:53 AM 80.1 °F 82.1 °F 66.0 °F 62% 29.96 in 10.0 mi South 9.2 mph - N/A   Mostly Cloudy
10:53 AM 68.0 °F - 66.0 °F 93% 29.94 in 10.0 mi WSW 6.9 mph - N/A   Mostly Cloudy
11:53 AM 86.0 °F 88.2 °F 66.0 °F 51% 29.94 in 10.0 mi Variable 4.6 mph - N/A   Clear
12:53 PM 90.0 °F 91.7 °F 64.9 °F 43% 29.94 in 10.0 mi North 8.1 mph - N/A   Mostly Cloudy
1:53 PM 91.0 °F 93.8 °F 66.0 °F 44% 29.94 in 10.0 mi NNE 16.1 mph 19.6 mph N/A   Mostly Cloudy
2:53 PM 91.9 °F 95.4 °F 66.9 °F 44% 29.94 in 10.0 mi NNE 11.5 mph 19.6 mph N/A   Mostly Cloudy
3:53 PM 91.9 °F 94.5 °F 66.0 °F 42% 29.93 in 10.0 mi ENE 9.2 mph - N/A   Mostly Cloudy
4:53 PM 93.9 °F 97.0 °F 66.0 °F 40% 29.91 in 10.0 mi NE 8.1 mph 17.3 mph N/A   Scattered Clouds
5:53 PM 93.9 °F 96.1 °F 64.9 °F 38% 29.91 in 10.0 mi NE 10.4 mph 18.4 mph N/A   Scattered Clouds
6:53 PM 93.0 °F 95.0 °F 64.9 °F 39% 29.91 in 10.0 mi NE 11.5 mph - N/A   Scattered Clouds
7:53 PM 90.0 °F 91.7 °F 64.9 °F 43% 29.92 in 10.0 mi NE 6.9 mph - N/A   Scattered Clouds
8:53 PM 84.9 °F 87.1 °F 66.0 °F 53% 29.94 in 10.0 mi ENE 9.2 mph - N/A   Scattered Clouds
9:53 PM 82.0 °F 84.1 °F 66.0 °F 58% 29.97 in 10.0 mi ENE 8.1 mph - N/A   Scattered Clouds
10:53 PM 80.6 °F 82.3 °F 64.4 °F 58% 29.96 in 10.0 mi East 8.1 mph - N/A   Scattered Clouds
11:53 PM 80.1 °F 82.3 °F 66.9 °F 64% 29.98 in 10.0 mi East 9.2 mph - N/A   Scattered Clouds